[[{"header":{"parameterUnit":"m.s-1","parameterCategory":1,"la1":30.2992,"la2":30.254,"lo1":-89.0895,"lo2":-89.0443,"dy":0.0025,"dx":0.0025,"nx":19,"ny":19,"refTime":"2026-04-18T09:00:00:Z","depth":0,"parameterNumber":2,"parameterNumberName":"U-component_of_WINDS"},"data":[0,0,0,-2.5791,-2.5794,-2.5964,-2.5964,-2.6183,-2.6185,0,0,0,0,0,0,0,0,0,0,0,-2.5741,-2.5742,-2.579,-2.5795,-2.5964,-2.5965,-2.6183,-2.6185,0,0,0,0,0,0,0,0,0,0,0,-2.574,-2.5742,-2.5743,-2.5795,-2.5964,-2.5965,-2.6182,-2.6054,0,0,0,0,0,0,0,0,0,0,-2.5889,-2.5843,-2.5741,-2.5743,-2.5796,-2.5963,-2.5965,-2.6048,-2.6062,-2.6107,0,-2.6146,0,-2.6169,-2.62,-2.6201,0,0,0,-2.5795,-2.5831,-2.5876,-2.5744,-2.5798,-2.5963,-2.5887,-2.6056,-2.6072,-2.6126,-2.6149,-2.6157,-2.6173,-2.6201,-2.6202,-2.6458,-2.6459,0,0,-2.5785,-2.5771,-2.5865,-2.5887,-2.586,-2.5882,-2.5893,-2.6066,-2.609,-2.615,-2.6162,-2.6176,-2.6203,-2.6204,-2.6457,-2.6458,0,0,0,-2.5758,-2.5765,-2.5806,-2.5878,-2.5908,-2.5887,-2.5899,-2.6083,-2.6097,-2.6165,-2.6179,-2.6204,-2.6207,-2.6455,-2.6457,-2.6503,0,0,0,-2.5753,-2.5749,-2.5802,-2.5795,-2.5905,-2.5997,-2.5913,-2.6085,-2.6105,-2.6178,-2.6204,-2.6209,-2.6454,-2.6456,-2.6499,-2.6527,0,0,0,-2.5729,-2.5746,-2.5771,-2.5794,-2.5866,-2.5995,-2.6019,-2.609,-2.6114,-2.6201,-2.6209,-2.6453,-2.6456,-2.6495,-2.6521,-2.6591,0,0,0,-2.5701,-2.5809,-2.5771,-2.5897,-2.5865,-2.6021,-2.6018,-2.6136,-2.6215,-2.6205,-2.6454,-2.6457,-2.6494,-2.6518,-2.6587,-2.6649,-2.6673,0,0,-2.583,-2.5824,-2.5899,-2.587,-2.603,-2.5996,-2.6163,-2.6249,-2.6271,-2.6394,-2.6401,-2.65,-2.6521,-2.6591,-2.6807,-2.6826,0,0,0,-2.5935,-2.5989,-2.6034,-2.6109,-2.6177,-2.6238,-2.6301,-2.6333,-2.6438,-2.6331,-2.6544,-2.6557,-2.6598,-2.6628,-2.6644,-2.6681,-2.647,-2.6469,-2.6469,-2.6099,-2.6119,-2.6246,-2.6287,-2.6359,-2.6422,-2.6483,-2.6537,-2.6537,-2.6587,-2.6625,-2.6754,-2.6789,-2.6801,-2.6839,-2.6657,-2.6657,-2.6658,-2.6658,-2.6291,-2.6371,-2.6367,-2.6489,-2.651,-2.6613,-2.6677,-2.6674,-2.6773,-2.6727,-2.6765,-2.6714,-2.6821,-2.6855,-2.6661,-2.6661,-2.666,-2.666,-2.666,-2.6402,-2.6444,-2.648,-2.659,-2.6673,-2.671,-2.6806,-2.6822,-2.6837,-2.6874,-2.6917,-2.6916,-2.6919,-2.6893,-2.6893,-2.6894,-2.6894,-2.6895,-2.6895,-2.6504,-2.6543,-2.6621,-2.6701,-2.6751,-2.682,-2.6883,-2.6933,-2.6993,-2.6997,-2.6998,-2.6994,-2.6826,-2.6785,-2.6902,-2.6901,-2.69,-2.6899,-2.6899,-2.6694,-2.6653,-2.6774,-2.6824,-2.692,-2.7002,-2.702,-2.712,-2.7164,-2.7211,-2.7198,-2.7071,-2.7067,-2.7055,-2.7021,-2.7192,-2.7192,-2.7192,-2.7192,-2.679,-2.6788,-2.6915,-2.6994,-2.7074,-2.7102,-2.7239,-2.7289,-2.7335,-2.7363,-2.734,-2.7296,-2.7282,-2.7287,-2.7269,-2.7238,-2.7461,-2.7461,-2.7461,-2.6909,-2.6916,-2.7029,-2.7072,-2.7148,-2.7213,-2.7343,-2.7435,-2.7478,-2.7472,-2.7387,-2.7375,-2.7304,-2.7279,-2.7273,-2.7246,-2.7189,0,0]},{"header":{"parameterUnit":"m.s-1","parameterCategory":1,"la1":30.2992,"la2":30.254,"lo1":-89.0895,"lo2":-89.0443,"dy":0.0025,"dx":0.0025,"nx":19,"ny":19,"refTime":"2026-04-18T09:00:00:Z","depth":0,"parameterNumber":3,"parameterNumberName":"V-component_of_WINDS"},"data":[0,0,0,-8.7641,-8.7646,-8.7856,-8.7857,-8.8137,-8.8139,0,0,0,0,0,0,0,0,0,0,0,-8.759,-8.7592,-8.7641,-8.7646,-8.7856,-8.7857,-8.8136,-8.8139,0,0,0,0,0,0,0,0,0,0,0,-8.7589,-8.7591,-8.7594,-8.7647,-8.7856,-8.7857,-8.8135,-8.7972,0,0,0,0,0,0,0,0,0,0,-8.7765,-8.773,-8.7591,-8.7595,-8.7648,-8.7856,-8.7857,-8.7964,-8.7982,-8.8047,0,-8.8113,0,-8.8131,-8.8159,-8.816,0,0,0,-8.7636,-8.7715,-8.7762,-8.7595,-8.765,-8.7856,-8.7759,-8.7974,-8.7995,-8.8072,-8.8117,-8.8126,-8.8136,-8.8161,-8.8163,-8.8584,-8.8586,0,0,-8.7625,-8.7632,-8.7748,-8.7776,-8.775,-8.7752,-8.7765,-8.7986,-8.8033,-8.8118,-8.8133,-8.814,-8.8163,-8.8165,-8.8581,-8.8584,0,0,0,-8.7598,-8.7625,-8.7666,-8.7765,-8.7803,-8.7758,-8.7774,-8.8024,-8.8037,-8.8136,-8.8144,-8.8165,-8.8168,-8.8579,-8.8582,-8.8713,0,0,0,-8.7591,-8.7609,-8.7662,-8.7668,-8.7799,-8.7917,-8.7807,-8.8021,-8.8046,-8.8142,-8.8165,-8.8171,-8.8576,-8.8581,-8.8704,-8.8773,0,0,0,-8.7572,-8.7607,-8.7642,-8.7668,-8.776,-8.7913,-8.7939,-8.8027,-8.8052,-8.816,-8.8172,-8.8574,-8.858,-8.8695,-8.8759,-8.8888,0,0,0,-8.7553,-8.7751,-8.7644,-8.7867,-8.7758,-8.7993,-8.7937,-8.8111,-8.8219,-8.8166,-8.8576,-8.8582,-8.8693,-8.8751,-8.8879,-8.8999,-8.905,0,0,-8.7807,-8.7782,-8.7913,-8.7823,-8.8081,-8.796,-8.8235,-8.8325,-8.8325,-8.8496,-8.8506,-8.8707,-8.8758,-8.8886,-8.9327,-8.9367,0,0,0,-8.7996,-8.8091,-8.8157,-8.8264,-8.834,-8.841,-8.8458,-8.8491,-8.8637,-8.8416,-8.8786,-8.8817,-8.8891,-8.8948,-8.8983,-8.9046,-8.8608,-8.8608,-8.8607,-8.8366,-8.836,-8.8577,-8.8597,-8.87,-8.8748,-8.883,-8.8882,-8.8842,-8.893,-8.8981,-8.925,-8.9317,-8.9343,-8.9409,-8.9042,-8.9043,-8.9043,-8.9044,-8.8739,-8.8872,-8.8818,-8.9009,-8.9,-8.9158,-8.9211,-8.9177,-8.9321,-8.921,-8.9275,-8.9157,-8.9387,-8.9445,-8.9053,-8.9052,-8.905,-8.9049,-8.9049,-8.8982,-8.9045,-8.9085,-8.924,-8.9358,-8.9368,-8.9511,-8.9495,-8.9481,-8.9545,-8.9599,-8.9596,-8.9593,-8.9572,-8.9573,-8.9574,-8.9574,-8.9575,-8.9576,-8.922,-8.9261,-8.9385,-8.9484,-8.9551,-8.9637,-8.9687,-8.975,-8.9817,-8.9794,-8.9794,-8.9746,-8.9411,-8.9329,-8.959,-8.9588,-8.9586,-8.9584,-8.9583,-8.9603,-8.9515,-8.9707,-8.9775,-8.989,-9.0009,-8.9987,-9.0119,-9.0169,-9.0239,-9.0177,-8.9932,-8.9903,-8.9876,-8.9808,-9.0177,-9.0177,-9.0177,-9.0177,-8.981,-8.9795,-8.999,-9.0099,-9.0203,-9.0204,-9.0419,-9.0459,-9.0485,-9.0515,-9.0458,-9.0365,-9.0338,-9.0326,-9.0289,-9.0225,-9.0692,-9.0693,-9.0693,-9.0046,-9.0041,-9.0229,-9.0259,-9.0347,-9.0422,-9.0623,-9.0747,-9.0757,-9.0714,-9.0538,-9.0516,-9.0366,-9.0317,-9.0271,-9.0214,-9.0096,0,0]}]]